• In Kazakhstan
  • List of Countries
  • For 7 days
  • Water Temperature
  • Weather Map
  • News
  • Weather Widgets
  • user-avatar
    Login

    Hourly Weather Tucupita

    Today, 9 April, Thursday

    Time Temperature Precipitation Wind Pressure Humidity
    00:00 +25°C° 0 mm 2 mps 759 mmHg 84%
    01:00 +25°C° 0 mm 1 mps 758 mmHg 87%
    02:00 +24°C° 0 mm 1 mps 758 mmHg 90%
    03:00 +24°C° 0 mm 1 mps 758 mmHg 92%
    04:00 +24°C° 0 mm 1 mps 758 mmHg 94%
    05:00 +23°C° 0 mm 1 mps 757 mmHg 96%
    06:00 +25°C° 0 mm 1 mps 758 mmHg 87%
    07:00 +27°C° 0 mm 2 mps 759 mmHg 78%
    08:00 +29°C° 0 mm 2 mps 759 mmHg 69%
    09:00 +30°C° 0 mm 2 mps 759 mmHg 63%
    10:00 +32°C° 0 mm 2 mps 759 mmHg 56%
    11:00 +35°C° 0 mm 2 mps 759 mmHg 50%
    12:00 +37°C° 0 mm 2 mps 758 mmHg 45%
    13:00 +38°C° 0 mm 2 mps 757 mmHg 40%
    14:00 +39°C° 0 mm 2 mps 756 mmHg 35%
    15:00 +39°C° 0 mm 3 mps 755 mmHg 37%
    16:00 +38°C° 0 mm 3 mps 755 mmHg 38%
    17:00 +38°C° 0 mm 3 mps 755 mmHg 39%
    18:00 +35°C° 0 mm 3 mps 755 mmHg 50%
    19:00 +31°C° 0 mm 3 mps 756 mmHg 60%
    20:00 +29°C° 0 mm 3 mps 756 mmHg 70%
    21:00 +28°C° 0 mm 3 mps 757 mmHg 76%
    22:00 +27°C° 0 mm 2 mps 757 mmHg 82%
    23:00 +26°C° 0 mm 1 mps 758 mmHg 88%

    Tomorrow, 10 April, Friday

    Time Temperature Precipitation Wind Pressure Humidity
    00:00 +25°C° 0 mm 1 mps 758 mmHg 91%
    01:00 +25°C° 0 mm 1 mps 758 mmHg 94%
    02:00 +24°C° 0 mm 1 mps 757 mmHg 97%
    03:00 +24°C° 0 mm 1 mps 757 mmHg 96%
    04:00 +25°C° 0 mm 1 mps 757 mmHg 95%
    05:00 +25°C° 0 mm 1 mps 757 mmHg 95%
    06:00 +26°C° 0 mm 2 mps 758 mmHg 88%
    07:00 +27°C° 0 mm 2 mps 759 mmHg 82%
    08:00 +28°C° 0 mm 3 mps 759 mmHg 76%
    09:00 +29°C° 0 mm 2 mps 759 mmHg 72%
    10:00 +30°C° 0 mm 2 mps 759 mmHg 68%
    11:00 +31°C° 0 mm 2 mps 759 mmHg 64%
    12:00 +32°C° 0 mm 2 mps 758 mmHg 58%
    13:00 +35°C° 0 mm 2 mps 757 mmHg 52%
    14:00 +36°C° 0 mm 2 mps 757 mmHg 46%
    15:00 +36°C° 0 mm 2 mps 756 mmHg 45%
    16:00 +37°C° 0 mm 3 mps 756 mmHg 43%
    17:00 +37°C° 0 mm 3 mps 755 mmHg 41%
    18:00 +35°C° 0 mm 3 mps 756 mmHg 50%
    19:00 +31°C° 0 mm 3 mps 757 mmHg 58%
    20:00 +29°C° 0 mm 3 mps 757 mmHg 67%
    21:00 +28°C° 0 mm 2 mps 758 mmHg 74%
    22:00 +27°C° 0 mm 2 mps 758 mmHg 81%
    23:00 +25°C° 0 mm 2 mps 759 mmHg 87%

    Day after tomorrow, 11 April, Saturday

    Time Temperature Precipitation Wind Pressure Humidity
    00:00 +25°C° 0 mm 1 mps 759 mmHg 91%
    01:00 +24°C° 0 mm 1 mps 759 mmHg 95%
    02:00 +24°C° 0 mm 1 mps 759 mmHg 98%
    03:00 +24°C° 0 mm 1 mps 759 mmHg 98%
    04:00 +24°C° 0 mm 1 mps 759 mmHg 98%
    05:00 +23°C° 0 mm 1 mps 759 mmHg 98%
    06:00 +25°C° 0 mm 2 mps 759 mmHg 88%
    07:00 +27°C° 0 mm 2 mps 760 mmHg 77%
    08:00 +29°C° 0 mm 3 mps 760 mmHg 67%
    09:00 +31°C° 0 mm 3 mps 760 mmHg 60%
    10:00 +34°C° 0 mm 3 mps 760 mmHg 53%
    11:00 +35°C° 0 mm 2 mps 760 mmHg 45%
    12:00 +37°C° 0 mm 3 mps 759 mmHg 41%
    13:00 +38°C° 0 mm 3 mps 758 mmHg 37%
    14:00 +39°C° 0 mm 3 mps 757 mmHg 32%
    15:00 +38°C° 0 mm 3 mps 757 mmHg 35%
    16:00 +37°C° 0 mm 3 mps 756 mmHg 37%
    17:00 +36°C° 0 mm 4 mps 756 mmHg 39%
    18:00 +34°C° 0 mm 3 mps 757 mmHg 48%
    19:00 +31°C° 0 mm 3 mps 757 mmHg 58%
    20:00 +28°C° 0 mm 3 mps 758 mmHg 67%
    21:00 +27°C° 0 mm 2 mps 758 mmHg 73%
    22:00 +26°C° 0 mm 2 mps 759 mmHg 80%
    23:00 +25°C° 0 mm 2 mps 759 mmHg 86%

    12 April, Sunday

    Time Temperature Precipitation Wind Pressure Humidity
    00:00 +24°C° 0 mm 1 mps 759 mmHg 89%
    01:00 +24°C° 0 mm 1 mps 759 mmHg 93%
    02:00 +23°C° 0 mm 1 mps 759 mmHg 96%
    03:00 +23°C° 0 mm 1 mps 759 mmHg 96%
    04:00 +23°C° 0 mm 1 mps 759 mmHg 96%
    05:00 +23°C° 0 mm 1 mps 759 mmHg 96%
    06:00 +25°C° 0 mm 2 mps 760 mmHg 85%
    07:00 +27°C° 0 mm 2 mps 760 mmHg 74%
    08:00 +29°C° 0 mm 3 mps 761 mmHg 63%
    09:00 +31°C° 0 mm 3 mps 761 mmHg 56%
    10:00 +34°C° 0 mm 3 mps 761 mmHg 50%
    11:00 +36°C° 0 mm 3 mps 761 mmHg 43%
    12:00 +37°C° 0 mm 3 mps 760 mmHg 39%
    13:00 +38°C° 0 mm 3 mps 759 mmHg 36%
    14:00 +39°C° 0 mm 3 mps 758 mmHg 33%
    15:00 +38°C° 0 mm 4 mps 758 mmHg 35%
    16:00 +37°C° 0 mm 4 mps 757 mmHg 37%
    17:00 +36°C° 0 mm 4 mps 757 mmHg 39%
    18:00 +33°C° 0 mm 3 mps 758 mmHg 48%
    19:00 +30°C° 0 mm 3 mps 758 mmHg 57%
    20:00 +28°C° 0 mm 2 mps 759 mmHg 67%
    21:00 +26°C° 0 mm 2 mps 759 mmHg 74%
    22:00 +25°C° 0 mm 2 mps 760 mmHg 82%
    23:00 +24°C° 0 mm 1 mps 760 mmHg 90%

    13 April, Monday

    Time Temperature Precipitation Wind Pressure Humidity
    00:00 +23°C° 0 mm 1 mps 760 mmHg 92%
    01:00 +23°C° 0 mm 1 mps 760 mmHg 95%
    02:00 +22°C° 0 mm 1 mps 760 mmHg 97%
    03:00 +22°C° 0 mm 1 mps 759 mmHg 97%
    04:00 +22°C° 0 mm 1 mps 759 mmHg 96%
    05:00 +23°C° 0 mm 1 mps 759 mmHg 95%
    06:00 +24°C° 0 mm 1 mps 760 mmHg 86%
    07:00 +26°C° 0 mm 1 mps 760 mmHg 78%
    08:00 +28°C° 0 mm 2 mps 761 mmHg 69%
    09:00 +30°C° 0 mm 2 mps 760 mmHg 57%
    10:00 +34°C° 0 mm 2 mps 760 mmHg 46%
    11:00 +37°C° 0 mm 2 mps 760 mmHg 34%
    12:00 +38°C° 0 mm 2 mps 759 mmHg 32%
    13:00 +39°C° 0 mm 2 mps 758 mmHg 29%
    14:00 +40°C° 0 mm 3 mps 757 mmHg 27%
    15:00 +39°C° 0 mm 3 mps 757 mmHg 31%
    16:00 +37°C° 0 mm 3 mps 757 mmHg 34%
    17:00 +36°C° 0 mm 4 mps 756 mmHg 38%
    18:00 +34°C° 0 mm 3 mps 757 mmHg 46%
    19:00 +30°C° 0 mm 3 mps 758 mmHg 54%
    20:00 +28°C° 0 mm 3 mps 758 mmHg 62%
    21:00 +26°C° 0 mm 2 mps 758 mmHg 70%
    22:00 +25°C° 0 mm 2 mps 759 mmHg 79%
    23:00 +23°C° 0 mm 1 mps 759 mmHg 88%

    14 April, Tuesday

    Time Temperature Precipitation Wind Pressure Humidity
    00:00 +23°C° 0 mm 1 mps 759 mmHg 91%
    01:00 +22°C° 0 mm 1 mps 759 mmHg 95%
    02:00 +22°C° 0 mm 1 mps 758 mmHg 98%
    03:00 +22°C° 0 mm 1 mps 758 mmHg 98%
    04:00 +22°C° 0 mm 1 mps 758 mmHg 98%
    05:00 +19°C° 0 mm 0 mps 758 mmHg 98%
    06:00 +23°C° 0 mm 1 mps 759 mmHg 90%
    07:00 +25°C° 0 mm 1 mps 759 mmHg 82%
    08:00 +27°C° 0 mm 1 mps 760 mmHg 75%
    09:00 +30°C° 0 mm 1 mps 759 mmHg 64%
    10:00 +32°C° 0 mm 2 mps 759 mmHg 54%
    11:00 +35°C° 0 mm 2 mps 759 mmHg 43%
    12:00 +37°C° 0 mm 2 mps 758 mmHg 38%
    13:00 +38°C° 0 mm 2 mps 757 mmHg 33%
    14:00 +40°C° 0 mm 2 mps 756 mmHg 27%
    15:00 +38°C° 0 mm 3 mps 756 mmHg 30%
    16:00 +37°C° 0 mm 3 mps 755 mmHg 33%
    17:00 +36°C° 0 mm 4 mps 755 mmHg 37%
    18:00 +34°C° 0 mm 3 mps 756 mmHg 47%
    19:00 +30°C° 0 mm 3 mps 756 mmHg 57%
    20:00 +28°C° 0 mm 3 mps 757 mmHg 68%
    21:00 +27°C° 0 mm 2 mps 757 mmHg 75%
    22:00 +25°C° 0 mm 2 mps 758 mmHg 83%
    23:00 +24°C° 0 mm 1 mps 758 mmHg 90%
    Show more